Location: Brantley
(31.5822°N, 86.2569°W)
Time: 02:51:35
(UTC+00:00)

Vanguard 3 - Pass Details

Date: 24 February 2026
Orbit: 507 x 3205 km, 33.4° (Epoch: 7 March)

Event Time Altitude Azimuth Distance (km) Brightness Sun altitude
Rises 22:28:52 0° 275° (W) 5,993 12.9 13.6°
Reaches altitude 10° 22:33:31 10° 276° (W) 4,555 12.4 12.7°
Maximum altitude 22:45:01 81° 4° (N) 1,311 8.4 10.4°
Drops below altitude 10° 22:51:15 10° 92° (E) 2,586 9.2 9.1°
Sets 22:53:15 0° 93° (E) 3,306 9.7 8.7°
